Home   Weather   Apolda   Past weeks

Flag for Germany Past Weather in Apolda, Thuringia, Germany — Yesterday and Last 2 Weeks

Now
34 °F

Clear.


Feels Like: 27 °F
Forecast: 39 / 53 °F
Wind: 8 mph from West

Location: Erfurt-Bindersleben

Current Time: Apr 24, 2017 at 2:11:26 am

Latest Report: Apr 24, 2017 at 1:50 am


Visibility: 10 mi

Pressure: 30.18 "Hg

Humidity: 87%

Dew Point: 30 °F

Location of ApoldaLocation

Past Weather in Apolda — Graph

°F

Apolda Temperature Yesterday

Maximum temperature yesterday: 48 °F (at 5:50 pm)
Minimum temperature yesterday: 34 °F (at 2:50 am)
Average temperature yesterday: 41 °F

High & Low Weather Summary for the Past Weeks

 TemperatureHumidityPressure
High68 °F (Apr 10, 11:50 am)100% (Apr 9, 12:20 am)30.57 "Hg (Apr 9, 12:20 am)
Low27 °F (Apr 20, 5:50 am)43% (Apr 10, 11:50 am)29.80 "Hg (Apr 13, 4:20 am)
Average43 °F76%30.13 "Hg
* Reported Apr 9 12:20 am — Apr 24 12:50 am, Apolda, Weather by CustomWeather, © 2017

Note: Actual official high and low records may vary slightly from our data, if they occured in-between our weather recording intervals... More about our weather records

Advertising

Apolda Weather History for the Previous 24 Hours

Scroll right to see more
 ConditionsComfort  
Time TempWeatherWind HumidityBarometerVisibility
12:50 am
Mon, Apr 24
37 °FPassing clouds.7 mph81%30.18 "HgN/A
12:20 am37 °FPassing clouds.7 mph81%30.18 "HgN/A
11:50 pm
Sun, Apr 23
39 °FPassing clouds.7 mph75%30.18 "HgN/A
11:20 pm37 °FPassing clouds.7 mph81%30.18 "HgN/A
10:50 pm39 °FClear.7 mph75%30.18 "Hg10 mi
10:20 pm41 °FClear.8 mph76%30.18 "Hg10 mi
9:50 pm41 °FClear.6 mph70%30.18 "Hg10 mi
8:50 pm43 °FPassing clouds.8 mph66%30.18 "HgN/A
8:20 pm43 °FScattered clouds.10 mph66%30.18 "HgN/A
7:50 pm43 °FScattered clouds.10 mph66%30.15 "HgN/A
7:20 pm43 °FPartly sunny.13 mph66%30.15 "HgN/A
6:50 pm45 °FBroken clouds.13 mph61%30.15 "HgN/A
6:20 pm45 °FPartly sunny.16 mph61%30.15 "HgN/A
5:50 pm48 °FPassing clouds.15 mph54%30.15 "HgN/A
5:20 pm46 °FScattered clouds.15 mph57%30.15 "HgN/A
4:50 pm45 °FBroken clouds.16 mph57%30.15 "HgN/A
4:20 pm46 °FScattered clouds.17 mph53%30.15 "HgN/A
3:50 pm46 °FScattered clouds.16 mph53%30.15 "HgN/A
3:20 pm46 °FSunny.16 mph53%30.15 "Hg10 mi
2:50 pm45 °FPassing clouds.14 mph53%30.15 "HgN/A
2:20 pm45 °FScattered clouds.18 mph53%30.15 "HgN/A
1:50 pm46 °FScattered clouds.15 mph50%30.15 "HgN/A
1:20 pm45 °FPartly sunny.17 mph53%30.18 "HgN/A
12:50 pm43 °FPartly sunny.15 mph61%30.18 "HgN/A
12:20 pm43 °FPartly sunny.15 mph66%30.18 "HgN/A
11:50 am43 °FScattered clouds.17 mph66%30.18 "HgN/A
11:20 am43 °FPartly sunny.14 mph66%30.18 "HgN/A
10:50 am41 °FPartly sunny.13 mph70%30.18 "HgN/A
10:20 am41 °FPartly sunny.13 mph76%30.18 "HgN/A
9:50 am39 °FPartly sunny.12 mph75%30.18 "HgN/A
9:20 am41 °FPartly sunny.15 mph76%30.18 "HgN/A
8:50 am39 °FPartly sunny.13 mph75%30.18 "HgN/A
8:20 am39 °FBroken clouds.12 mph75%30.18 "HgN/A
7:50 am37 °FPartly sunny.10 mph81%30.15 "HgN/A
7:20 am37 °FBroken clouds.9 mph81%30.15 "HgN/A
6:50 am37 °FSprinkles. Broken clouds.9 mph81%30.15 "HgN/A
6:20 am37 °FBroken clouds.9 mph81%30.15 "HgN/A
5:50 am36 °FPartly cloudy.10 mph87%30.15 "HgN/A
5:20 am36 °FPartly cloudy.8 mph87%30.15 "HgN/A
4:50 am34 °FPassing clouds.6 mph87%30.12 "HgN/A
4:20 am36 °FPassing clouds.9 mph81%30.12 "HgN/A
3:50 am36 °FPassing clouds.8 mph87%30.12 "HgN/A
3:20 am36 °FPassing clouds.9 mph81%30.12 "HgN/A
2:50 am34 °FPassing clouds.7 mph87%30.12 "HgN/A
2:20 am36 °FPassing clouds.9 mph81%30.12 "HgN/A
Weather by CustomWeather, © 2017

See weather overviewHow to use our weather pages